EW4659 Weather Reports


time (UTC)temp
C
wind
direction
speed
KPH
gust
KPH
rain 1hr
cm
rain 24hr
cm
rain mn
cm
humidity
%
barometer
mb
20260507005508 11 254 0.0 0.0 0.00 1.22 0.58 59 1014.1
20260507005002 11 254 0.0 0.0 0.00 1.22 0.58 59 1013.9
20260507004512 11 254 0.0 1.6 0.00 1.24 0.58 60 1013.8
20260507004005 11 254 0.0 1.6 0.00 1.24 0.58 59 1013.8
20260507003503 11 254 0.0 1.6 0.00 1.24 0.58 57 1013.8
20260507003008 11 260 0.0 1.6 0.00 1.27 0.58 57 1013.8
20260507002504 11 301 0.0 1.6 0.00 1.27 0.58 57 1013.6
20260507002008 11 301 0.0 1.6 0.00 1.27 0.58 56 1013.5
20260507001512 11 352 0.0 1.6 0.00 1.30 0.58 55 1013.6
20260507001003 11 352 0.0 3.2 0.00 1.30 0.58 55 1013.6
20260507000509 12 352 0.0 3.2 0.00 1.30 0.58 54 1013.3
20260507000024 12 319 0.0 3.2 0.00 1.30 0.58 54 1013.2
20260506235508 12 217 0.0 3.2 0.00 1.32 0.58 54 1013.4
20260506235007 12 346 0.0 1.6 0.00 1.32 0.58 53 1013.3
20260506234534 12 49 0.0 1.6 0.00 1.32 0.58 55 1013.4
20260506234009 12 69 0.0 3.2 0.00 1.32 0.58 54 1013.3
20260506233503 12 25 0.0 3.2 0.00 1.32 0.58 53 1013.2
20260506233008 12 336 0.0 3.2 0.00 1.32 0.58 52 1013.2
20260506232503 12 348 0.0 11.3 0.00 1.32 0.58 52 1013.2
20260506232003 12 188 0.0 11.3 0.00 1.32 0.58 52 1013.4
20260506231528 12 221 1.6 9.7 0.00 1.32 0.58 53 1013.4
20260506231006 12 233 0.0 6.4 0.00 1.32 0.58 53 1013.5
20260506230506 12 277 0.0 6.4 0.00 1.32 0.58 53 1013.7
20260506230018 12 186 0.0 6.4 0.00 1.32 0.58 53 1013.8
20260506225507 12 41 0.0 3.2 0.00 1.32 0.58 53 1013.6
20260506225010 12 352 0.0 3.2 0.00 1.32 0.58 54 1013.7
20260506224522 12 196 0.0 3.2 0.00 1.32 0.58 54 1013.7
20260506224007 13 42 0.0 3.2 0.00 1.32 0.58 52 1013.7
20260506223509 13 24 0.0 3.2 0.00 1.32 0.58 52 1013.8
20260506223037 13 349 0.0 4.8 0.00 1.32 0.58 53 1013.9
20260506222510 13 319 0.0 4.8 0.00 1.32 0.58 51 1013.9
20260506222010 13 315 0.0 4.8 0.00 1.32 0.58 53 1013.9
20260506221509 13 340 0.0 3.2 0.00 1.37 0.58 51 1014.0
20260506221003 13 337 0.0 3.2 0.00 1.37 0.58 51 1013.6
20260506220504 13 290 0.0 3.2 0.00 1.40 0.58 51 1013.5
20260506220011 13 246 0.0 4.8 0.00 1.40 0.58 53 1013.3
20260506215509 13 32 0.0 4.8 0.00 1.42 0.58 50 1013.3
20260506215008 13 312 1.6 4.8 0.00 1.42 0.58 50 1013.2
20260506214517 13 290 1.6 8.0 0.00 1.45 0.58 50 1013.3
20260506214008 13 338 0.0 8.0 0.00 1.47 0.58 51 1013.2
20260506213510 13 351 0.0 4.8 0.00 1.47 0.58 53 1013.0
20260506213026 13 318 0.0 6.4 0.00 1.55 0.58 53 1013.0
20260506212508 13 360 1.6 8.0 0.00 1.60 0.58 52 1013.0
20260506212015 13 360 0.0 8.0 0.00 1.63 0.58 52 1013.0
20260506211537 13 40 0.0 6.4 0.00 1.68 0.58 52 1013.0
20260506211010 13 338 0.0 12.9 0.00 1.68 0.58 51 1013.0
20260506210511 13 74 1.6 12.9 0.00 1.68 0.58 50 1012.9
20260506210009 13 331 1.6 6.4 0.00 1.68 0.58 53 1012.9
20260506205504 13 34 0.0 6.4 0.00 1.68 0.58 51 1013.0
20260506205007 13 5 1.6 6.4 0.00 1.68 0.58 49 1012.9
20260506204516 13 360 0.0 4.8 0.00 1.68 0.58 50 1013.0
20260506204006 13 71 0.0 3.2 0.00 1.68 0.58 49 1012.9
20260506203506 14 238 0.0 14.5 0.00 1.68 0.58 50 1012.9
20260506203027 14 338 1.6 14.5 0.00 1.68 0.58 49 1012.8
20260506202507 14 28 0.0 9.7 0.00 1.68 0.58 48 1012.8
20260506202012 14 338 1.6 9.7 0.00 1.68 0.58 52 1012.6
20260506201533 14 346 1.6 9.7 0.00 1.68 0.58 49 1012.7
20260506201010 14 352 0.0 19.3 0.00 1.68 0.58 48 1012.7
20260506200512 14 55 3.2 19.3 0.00 1.68 0.58 48 1012.7
20260506200029 14 14 0.0 9.7 0.00 1.68 0.58 51 1012.6
20260506195509 15 21 1.6 12.9 0.00 1.68 0.58 51 1012.6
20260506195013 15 5 0.0 12.9 0.00 1.68 0.58 49 1012.7
20260506194531 15 67 0.0 6.4 0.00 1.68 0.58 49 1012.5
20260506194008 15 12 1.6 6.4 0.00 1.68 0.58 49 1012.5
20260506193508 15 268 0.0 8.0 0.00 1.68 0.58 51 1012.6
20260506193019 15 301 0.0 8.0 0.00 1.68 0.58 50 1012.6
20260506192507 15 270 1.6 11.3 0.00 1.68 0.58 49 1012.6
20260506192009 15 334 1.6 11.3 0.00 1.68 0.58 51 1012.5
20260506191522 15 34 0.0 6.4 0.00 1.68 0.58 46 1012.4
20260506191007 16 324 0.0 14.5 0.00 1.68 0.58 48 1012.4
20260506190502 16 352 1.6 14.5 0.00 1.68 0.58 48 1012.4
20260506190007 16 265 3.2 12.9 0.00 1.68 0.58 46 1012.5
20260506185504 16 17 3.2 12.9 0.00 1.68 0.58 48 1012.4
20260506185002 16 327 1.6 8.0 0.00 1.68 0.58 49 1012.4
20260506184510 16 286 1.6 4.8 0.00 1.68 0.58 45 1012.4
20260506184004 16 273 1.6 14.5 0.00 1.68 0.58 50 1012.5
20260506183502 16 29 1.6 14.5 0.00 1.68 0.58 51 1012.5
20260506183003 16 51 1.6 14.5 0.00 1.68 0.58 48 1012.6
20260506182502 16 313 0.0 8.0 0.00 1.68 0.58 51 1012.7
20260506182003 16 313 0.0 11.3 0.00 1.68 0.58 51 1012.7
20260506181503 16 346 3.2 11.3 0.00 1.68 0.58 51 1012.5
20260506181003 15 33 0.0 9.7 0.00 1.68 0.58 52 1012.5
20260506180504 16 351 1.6 9.7 0.00 1.68 0.58 50 1012.6
20260506180011 16 320 0.0 9.7 0.00 1.68 0.58 51 1012.6
20260506175503 16 26 0.0 6.4 0.00 1.68 0.58 47 1012.6
20260506175004 16 202 1.6 9.7 0.00 1.68 0.58 51 1012.6
20260506174511 16 340 3.2 9.7 0.00 1.68 0.58 53 1012.7
20260506174004 15 21 0.0 8.0 0.00 1.68 0.58 51 1012.8
20260506173505 15 330 0.0 6.4 0.00 1.68 0.58 53 1012.9
20260506173013 15 26 1.6 14.5 0.00 1.68 0.58 51 1012.8
20260506172508 15 346 1.6 14.5 0.00 1.68 0.58 49 1012.7
20260506172002 15 42 4.8 14.5 0.00 1.68 0.58 50 1012.6
20260506171503 15 16 0.0 12.9 0.00 1.68 0.58 56 1012.6
20260506171004 15 360 0.0 16.1 0.00 1.68 0.58 56 1012.7
20260506170502 15 344 4.8 16.1 0.00 1.68 0.58 53 1012.7
20260506170005 15 303 1.6 6.4 0.00 1.68 0.58 55 1012.7
20260506165505 15 309 0.0 14.5 0.00 1.68 0.58 58 1012.8
20260506165003 15 352 1.6 14.5 0.00 1.68 0.58 56 1012.6
20260506164505 15 352 0.0 11.3 0.00 1.68 0.58 54 1012.5
20260506164004 14 40 1.6 11.3 0.00 1.68 0.58 60 1012.5
20260506163503 15 121 3.2 9.7 0.00 1.68 0.58 54 1012.7
20260506163011 14 317 0.0 6.4 0.00 1.68 0.58 60 1012.9
20260506162505 14 228 1.6 8.0 0.00 1.68 0.58 57 1013.0
20260506162005 14 360 3.2 8.0 0.00 1.68 0.58 62 1012.8
20260506161516 13 5 0.0 8.0 0.00 1.68 0.58 58 1012.9
20260506161007 13 360 0.0 6.4 0.00 1.68 0.58 58 1012.9
20260506160502 13 71 0.0 4.8 0.00 1.68 0.58 63 1012.8
20260506160003 13 306 1.6 4.8 0.00 1.68 0.58 64 1012.6
20260506155502 12 325 0.0 4.8 0.00 1.68 0.58 64 1012.5
20260506155003 12 338 0.0 3.2 0.00 1.68 0.58 69 1012.6
20260506154504 12 299 0.0 9.7 0.00 1.68 0.58 70 1012.3
20260506154004 12 13 3.2 9.7 0.00 1.68 0.58 69 1012.3
20260506153504 12 315 0.0 8.0 0.00 1.68 0.58 70 1012.2
20260506153011 12 313 1.6 8.0 0.00 1.68 0.58 69 1012.3
20260506152506 12 102 0.0 8.0 0.00 1.68 0.58 71 1012.2
20260506152006 11 33 1.6 9.7 0.00 1.68 0.58 72 1012.2
20260506151514 11 40 1.6 9.7 0.00 1.68 0.58 73 1012.2
20260506151004 11 17 3.2 11.3 0.00 1.68 0.58 73 1012.1
20260506150507 11 130 0.0 11.3 0.00 1.68 0.58 74 1012.0
20260506150018 10 68 1.6 8.0 0.00 1.68 0.58 75 1011.9
20260506145506 10 22 3.2 8.0 0.00 1.68 0.58 78 1012.0
20260506145002 10 338 1.6 6.4 0.00 1.68 0.58 79 1012.0
20260506144502 10 360 0.0 6.4 0.00 1.68 0.58 80 1012.1
20260506144002 10 123 0.0 6.4 0.00 1.68 0.58 82 1012.2
20260506143502 10 352 0.0 4.8 0.00 1.68 0.58 82 1012.2
20260506143015 10 22 0.0 4.8 0.00 1.68 0.58 82 1012.2
20260506142504 10 35 1.6 6.4 0.00 1.68 0.58 83 1011.8
20260506142005 9 44 0.0 6.4 0.00 1.68 0.58 84 1011.7
20260506141511 9 48 0.0 6.4 0.00 1.68 0.58 85 1011.8
20260506141009 9 338 0.0 4.8 0.00 1.68 0.58 86 1011.7
20260506140506 8 22 0.0 4.8 0.00 1.68 0.58 86 1011.5
20260506140014 8 13 0.0 12.9 0.00 1.68 0.58 88 1011.2
20260506135511 8 30 1.6 12.9 0.00 1.68 0.58 88 1011.2
20260506135008 8 65 0.0 14.5 0.00 1.68 0.58 89 1011.2
20260506134522 8 28 1.6 14.5 0.00 1.68 0.58 88 1011.3
20260506134008 8 50 1.6 12.9 0.00 1.68 0.58 90 1011.2
20260506133510 8 5 0.0 12.9 0.00 1.68 0.58 91 1011.2
20260506133003 8 40 1.6 9.7 0.00 1.68 0.58 92 1011.0
20260506132502 8 360 1.6 11.3 0.00 1.68 0.58 93 1011.0
20260506132015 7 9 0.0 11.3 0.00 1.68 0.58 93 1010.8
20260506131510 7 22 0.0 4.8 0.00 1.68 0.58 94 1010.8
20260506131007 7 38 0.0 3.2 0.00 1.68 0.58 94 1011.1
20260506130506 7 82 0.0 3.2 0.00 1.68 0.58 94 1011.0
20260506130015 7 22 0.0 3.2 0.00 1.68 0.58 94 1011.0
20260506125506 7 325 0.0 3.2 0.00 1.68 0.58 94 1011.1
20260506125007 7 30 0.0 6.4 0.03 1.68 0.58 94 1011.0
20260506124517 7 15 0.0 6.4 0.03 1.68 0.58 93 1010.9
20260506124008 7 30 0.0 4.8 0.03 1.68 0.58 94 1010.8
20260506123508 7 313 0.0 3.2 0.03 1.68 0.58 95 1010.6
20260506123029 7 340 0.0 1.6 0.03 1.68 0.58 95 1010.3
20260506122508 7 5 0.0 6.4 0.03 1.68 0.58 95 1010.2
20260506122012 7 5 0.0 6.4 0.03 1.68 0.58 95 1010.0
20260506121529 7 38 0.0 4.8 0.03 1.68 0.58 95 1010.0
20260506121003 7 38 0.0 4.8 0.03 1.68 0.58 95 1009.8
20260506120504 7 335 0.0 4.8 0.03 1.68 0.58 95 1010.0
20260506120010 7 360 0.0 4.8 0.03 1.68 0.58 95 1010.0
20260506115504 7 352 0.0 3.2 0.03 1.68 0.58 95 1010.1
20260506115006 7 342 0.0 3.2 0.00 1.65 0.56 95 1009.9
20260506114518 7 323 0.0 3.2 0.00 1.65 0.56 95 1010.1
20260506114010 7 270 0.0 3.2 0.00 1.65 0.56 95 1010.2
20260506113509 7 314 0.0 3.2 0.00 1.65 0.56 95 1010.1
20260506113028 7 14 0.0 6.4 0.00 1.65 0.56 95 1010.2
20260506112512 7 316 0.0 6.4 0.00 1.65 0.56 95 1010.0
20260506112016 7 10 0.0 9.7 0.00 1.65 0.56 95 1009.3
20260506111524 7 350 0.0 9.7 0.00 1.65 0.56 95 1008.9
20260506111017 7 19 0.0 8.0 0.00 1.65 0.56 95 1008.6
20260506110510 7 36 0.0 8.0 0.00 1.65 0.56 95 1008.8
20260506110031 7 22 0.0 4.8 0.00 1.65 0.56 95 1008.9
20260506105504 7 281 0.0 4.8 0.00 1.65 0.56 95 1009.0
20260506105005 7 323 0.0 4.8 0.00 1.65 0.56 95 1008.8
20260506104511 7 59 0.0 6.4 0.00 1.65 0.56 95 1008.8
20260506104006 7 13 0.0 6.4 0.00 1.65 0.56 95 1009.0
20260506103511 7 352 0.0 6.4 0.00 1.65 0.56 95 1009.2
20260506103015 7 33 0.0 6.4 0.00 1.65 0.56 95 1009.1
20260506102507 7 346 0.0 4.8 0.00 1.65 0.56 95 1009.0
20260506102009 7 348 0.0 1.6 0.00 1.65 0.56 95 1008.9
20260506101524 7 339 0.0 4.8 0.00 1.65 0.56 95 1008.6
20260506101006 7 17 0.0 4.8 0.00 1.65 0.56 95 1008.4
20260506100504 7 28 0.0 6.4 0.03 1.65 0.56 95 1008.0
20260506100008 7 348 0.0 6.4 0.03 1.65 0.56 95 1007.8
20260506095505 7 360 0.0 4.8 0.03 1.65 0.56 95 1007.6
20260506095004 7 327 0.0 4.8 0.03 1.65 0.56 95 1007.9
20260506094512 7 309 0.0 11.3 0.03 1.65 0.56 95 1008.1
20260506094003 7 9 0.0 11.3 0.05 1.65 0.56 95 1007.5
20260506093503 7 57 3.2 11.3 0.05 1.65 0.56 95 1007.3
20260506093014 7 29 1.6 6.4 0.05 1.65 0.56 95 1007.8
20260506092506 7 27 1.6 9.7 0.08 1.65 0.56 95 1007.8
20260506092003 7 292 1.6 9.7 0.10 1.65 0.56 95 1008.0
20260506091511 7 37 1.6 8.0 0.13 1.65 0.56 95 1008.0
20260506091003 7 360 0.0 4.8 0.13 1.65 0.56 95 1008.0
20260506090503 7 317 0.0 8.0 0.13 1.63 0.53 95 1007.7
20260506090006 7 61 1.6 12.9 0.13 1.63 0.53 95 1007.5
20260506085504 7 5 4.8 12.9 0.15 1.63 0.53 95 1007.5
20260506085002 7 43 1.6 8.0 0.15 1.63 0.53 95 1007.6
20260506084507 7 146 0.0 19.3 0.15 1.63 0.53 95 1007.8
20260506084010 7 5 1.6 19.3 0.13 1.60 0.51 94 1008.1
20260506083504 7 31 0.0 8.0 0.13 1.60 0.51 95 1008.2
20260506083013 7 159 0.0 8.0 0.15 1.60 0.51 95 1007.8
20260506082504 7 352 1.6 8.0 0.13 1.57 0.48 95 1007.8
20260506082009 7 44 1.6 8.0 0.10 1.55 0.46 95 1007.6
20260506081519 7 53 1.6 12.9 0.08 1.52 0.43 95 1007.6
20260506081008 7 360 1.6 14.5 0.08 1.52 0.43 95 1007.7
20260506080506 7 14 0.0 14.5 0.08 1.47 0.41 94 1007.7
20260506073503 7 39 0.0 16.1 0.13 1.47 0.38 94 1007.1
20260506073010 7 19 0.0 16.1 0.13 1.45 0.36 94 1007.2
20260506072511 7 55 1.6 14.5 0.13 1.45 0.36 94 1007.0
20260506072006 8 312 0.0 14.5 0.15 1.45 0.36 94 1007.3
20260506071516 8 64 0.0 6.4 0.15 1.45 0.36 94 1007.2
20260506071007 8 338 0.0 12.9 0.18 1.45 0.36 94 1007.2
20260506070507 8 28 0.0 12.9 0.18 1.42 0.33 94 1007.1
20260506062505 8 26 1.6 11.3 0.18 1.32 0.23 94 1007.3
20260506062006 8 336 0.0 11.3 0.15 1.30 0.20 94 1007.3
20260506061520 8 36 0.0 4.8 0.18 1.30 0.20 94 1007.4
20260506061008 8 27 0.0 4.8 0.15 1.27 0.18 94 1007.3
20260506060508 9 332 0.0 4.8 0.15 1.24 0.15 94 1007.4
20260506051008 9 46 1.6 12.9 0.03 1.12 0.03 94 1007.4
20260506050506 9 21 1.6 6.4 0.00 1.09 0.00 94 1007.4
20260506045008 10 44 0.0 8.0 0.03 1.09 0.00 93 1007.7
20260506044524 10 5 1.6 8.0 0.03 1.09 0.00 93 1007.6
20260506044010 10 302 1.6 6.4 0.03 1.09 0.00 94 1007.6
20260506043508 10 352 0.0 14.5 0.03 1.09 0.00 94 1007.4
20260506043036 10 20 0.0 17.7 0.05 1.09 0.00 93 1007.6
20260506042508 10 73 4.8 17.7 0.05 1.09 0.00 93 1007.5
20260506042012 10 333 3.2 14.5 0.08 1.09 0.00 93 1007.7
20260506041530 10 20 0.0 14.5 0.10 1.09 0.00 93 1007.6
20260506041008 10 18 3.2 12.9 0.13 1.09 0.00 93 1007.6
20260506040504 10 5 4.8 12.9 0.18 1.09 0.00 93 1007.6
20260506040011 10 40 3.2 8.0 0.23 1.09 0.00 92 1007.7
20260506035506 10 360 3.2 8.0 0.28 1.09 1.09 92 1007.9
20260506035011 10 360 0.0 8.0 0.28 1.07 1.07 92 1008.0
20260506034518 10 26 0.0 8.0 0.30 1.07 1.07 91 1008.0
20260506034009 10 29 0.0 14.5 0.30 1.07 1.07 91 1008.0
20260506033506 11 38 3.2 14.5 0.30 1.07 1.07 91 1008.0
20260506033021 11 300 1.6 8.0 0.30 1.04 1.04 90 1008.0
20260506032507 11 312 1.6 6.4 0.30 1.04 1.04 91 1008.2
20260506032009 12 24 1.6 6.4 0.30 1.02 1.02 90 1008.4
20260506031529 12 84 0.0 3.2 0.28 0.99 0.99 90 1008.3
20260506031011 13 352 0.0 9.7 0.28 0.97 0.97 91 1008.5
20260506030509 13 335 0.0 11.3 0.25 0.91 0.91 92 1008.5
20260506030029 13 352 1.6 11.3 0.23 0.86 0.86 93 1008.2
20260506025508 14 292 0.0 12.9 0.20 0.81 0.81 93 1008.5
20260506025003 14 319 0.0 12.9 0.20 0.79 0.79 93 1008.3
20260506024531 14 226 1.6 12.9 0.20 0.76 0.76 93 1008.2
20260506024014 14 255 3.2 12.9 0.20 0.76 0.76 93 1008.1
20260506023513 14 184 1.6 11.3 0.23 0.76 0.76 93 1008.1
20260506023018 14 313 4.8 11.3 0.23 0.74 0.74 93 1008.1
20260506022511 14 311 1.6 11.3 0.25 0.74 0.74 93 1008.1
20260506022012 14 186 3.2 11.3 0.23 0.71 0.71 93 1008.1
20260506021532 14 186 3.2 11.3 0.25 0.71 0.71 93 1008.1
20260506021010 15 227 1.6 11.3 0.23 0.69 0.69 93 1008.2
20260506020509 15 190 3.2 17.7 0.20 0.66 0.66 93 1008.2
20260506020028 15 173 4.8 17.7 0.18 0.64 0.64 93 1008.2
20260506015509 15 202 1.6 8.0 0.15 0.61 0.61 94 1008.3
20260506015016 15 201 1.6 9.7 0.13 0.58 0.58 94 1008.2
20260506014531 15 198 4.8 9.7 0.13 0.56 0.56 94 1008.2
20260506014012 15 267 0.0 4.8 0.13 0.56 0.56 94 1008.2
20260506013510 15 200 1.6 4.8 0.10 0.53 0.53 94 1008.2
20260506013016 15 214 0.0 6.4 0.10 0.51 0.51 94 1008.1
20260506012506 15 185 0.0 6.4 0.08 0.48 0.48 94 1008.0
20260506012007 15 214 1.6 3.2 0.08 0.48 0.48 94 1008.0
20260506011522 15 205 0.0 3.2 0.08 0.46 0.46 93 1007.9
20260506011013 15 210 0.0 6.4 0.08 0.46 0.46 93 1007.7
20260506011006 15 209 0.0 6.4 0.08 0.46 0.46 93 1007.7
20260506010502 15 170 0.0 6.4 0.08 0.46 0.46 93 1007.5
20260506010006 15 173 1.6 8.0 0.08 0.46 0.46 93 1007.6